Location: Tamazert
(32.6352°N, 5.2072°W)
Time: 23:51:13
(UTC+00:00)

Altair - Pass Details

Date: 11 October 2022
Orbit: 1501 x 1682 km, 47.2° (Epoch: 05 December)

Event Time Altitude Azimuth Distance (km) Brightness Sun altitude
Exits shadow 05:19:53 14° 293° (WNW) 3,519 8.8 -13.8°
Maximum altitude 05:27:30 35° 353° (N) 2,404 8.5 -12.2°
Drops below altitude 10° 05:36:28 10° 56° (NE) 3,916 10.5 -10.3°
Sets 05:40:06 0° 65° (ENE) 4,919 11.4 -9.6°
